metlocid,date_time,avg_pressta,std_pressta,min_pressta,max_pressta,n_pressta,n_comments
HOEM,11/1/94,980.15553,7.01999151,970,994,868,0
HOEM,12/1/94,976.0833333,5.837885355,965,989,2232,0
HOEM,1/1/95,976.2778276,4.780922305,968,990,2228,0
HOEM,2/1/95,976.90625,6.415524025,961,990,2016,0
HOEM,3/1/95,986.0510753,8.396072202,972,1005,2232,0
HOEM,4/1/95,978.9898148,9.426387134,961,1002,2160,0
HOEM,5/1/95,976.8104839,11.89892504,946,1003,2232,0
HOEM,6/1/95,983.862963,11.0222613,956,1012,2160,0
HOEM,7/1/95,996.3642473,9.103835173,979,1015,2232,0
HOEM,8/1/95,982.1801075,13.67929393,944,1013,2232,0
HOEM,9/1/95,974.2402778,13.57633788,952,1003,2160,0
HOEM,10/1/95,975.3248208,8.188268355,953,994,2232,0
HOEM,11/1/95,973.8492099,6.985325828,951,984,2215,0
HOEM,12/1/95,973.6075269,5.0465261,963,984,2976,0
HOEM,1/1/96,981.4602638,6.438597798,968,994,2957,0
HOEM,2/1/96,985.9903017,6.161520331,967,998,2784,0
HOEM,3/1/96,980.5362903,5.238002077,971,993,2976,0
HOEM,4/1/96,974.3628472,9.723689122,952,994,2880,0
HOEM,5/1/96,981.2100134,13.57817999,947,1017,2976,0
HOEM,6/1/96,978.5930556,9.115465964,955,996,2880,0
HOEM,7/1/96,978.2634409,9.262474439,954,999,2976,0
HOEM,8/1/96,983.061828,12.60276912,957,1011,2976,0
HOEM,9/1/96,984.9788194,11.63404754,960,1003,2880,0
HOEM,10/1/96,967.6488575,11.62581966,943,989,2976,0
HOEM,11/1/96,982.5618056,7.663761493,967,1002,2880,0
HOEM,12/1/96,980.968078,5.446515111,970,993,2976,0
HOEM,1/1/97,983.7548756,4.14342205,976,993,2974,0
HOEM,2/1/97,985.0904018,4.896967168,973,995,2688,0
HOEM,3/1/97,975.203629,9.389581224,948,995,2976,0
HOEM,4/1/97,980.89375,11.03437251,957,1008,2880,0
HOEM,5/1/97,968.7557666,8.918667908,942,986,2948,0
HOEM,6/1/97,982.546875,12.17174299,954,1004,2880,0
HOEM,7/1/97,975.1458616,7.932042535,947,989,2948,0
HOEM,8/1/97,973.0873656,8.678870022,945,988,2976,0
HOEM,9/1/97,976.6402778,8.468426696,956,998,2880,0
HOEM,10/1/97,972.8847446,8.434332946,950,989,2976,0
HOEM,11/1/97,982.6610995,11.66957052,956,1003,2874,0
HOEM,12/1/97,985.9475806,5.646976512,973,1000,2976,0
HOEM,1/1/98,980.5766129,4.0035502,973,989,2976,0
HOEM,2/1/98,976.4869792,8.026508562,945,988,2688,0
HOEM,3/1/98,977.389888,8.559583479,959,998,2947,0
HOEM,4/1/98,971.4590278,10.34545985,943,997,2880,0
HOEM,5/1/98,977.8346774,10.34352249,950,996,2976,0
HOEM,6/1/98,972.5013889,8.465322567,952,988,2880,0
HOEM,7/1/98,975.5742608,8.558402199,958,994,2976,0
HOEM,8/1/98,974.0712366,10.02375159,958,999,2976,0
HOEM,9/1/98,983.7569444,11.74139344,962,1007,2880,0
HOEM,10/1/98,975.5208333,7.704210533,954,990,2976,0
HOEM,11/1/98,969.2716221,8.650771948,952,988,2879,0
HOEM,12/1/98,976.5050403,7.744359279,960,990,2976,0
HOEM,1/1/99,978.6495296,4.908968275,967,991,2976,0
HOEM,2/1/99,982.7332589,6.234642364,964,995,2688,0
HOEM,3/1/99,980.499328,8.258593663,965,997,2976,0
HOEM,4/1/99,976.8385417,9.398623126,953,998,2880,0
HOEM,5/1/99,974.0826613,5.008888413,957,985,2976,0
HOEM,6/1/99,994.6357639,11.12199733,965,1018,2880,0
HOEM,7/1/99,974.6344086,11.11668043,950,996,2976,0
HOEM,8/1/99,979.922043,7.901492551,961,1002,2976,0
HOEM,9/1/99,977.9416667,9.508231201,960,997,2880,0
HOEM,10/1/99,961.6053782,8.424328181,940,979,2975,1
HOEM,11/1/99,967.771875,8.3405112,944,987,2880,0
HOEM,12/1/99,969.7614247,7.883705386,952,984,2976,0
HOEM,1/1/00,973.4153226,5.763304995,960,988,2976,0
HOEM,2/1/00,978.330819,8.406880721,959,993,2784,0
HOEM,3/1/00,979.4979839,5.926155893,967,998,2976,0
HOEM,4/1/00,978.8392361,8.195309664,964,994,2880,0
HOEM,5/1/00,979.0201613,14.79398913,947,1019,2976,0
HOEM,6/1/00,981.4847222,7.821367225,955,998,2880,0
HOEM,7/1/00,977.3356855,10.87696896,951,1002,2976,0
HOEM,8/1/00,979.7469471,7.955407244,962,997,2948,28
HOEM,9/1/00,984.2993056,14.5885565,954,1011,2880,0
HOEM,10/1/00,971.2869624,10.44777221,948,998,2976,0
HOEM,11/1/00,976.742619,9.307843776,955,999,2879,0
HOEM,12/1/00,990.6858199,5.447171546,983,1007,2976,0
HOEM,1/1/01,986.093078,3.971292676,976,993,2976,0
HOEM,2/1/01,983.8556548,4.721495242,971,996,2688,0
HOEM,3/1/01,980.0749328,5.2225204,969,990,2976,0
HOEM,4/1/01,974.7944444,9.891251535,949,988,2880,0
HOEM,5/1/01,980.0302419,8.971575623,956,1004,2976,0
HOEM,6/1/01,975.2392361,12.08373826,928,993,2880,0
HOEM,7/1/01,982.328293,9.767107512,962,1007,2976,0
HOEM,8/1/01,978.4159946,9.995881482,961,1002,2976,0
HOEM,9/1/01,975.1361111,10.98808355,947,997,2880,0
HOEM,10/1/01,968.09375,8.746184642,939,986,2976,0
HOEM,11/1/01,971.7451389,7.563851895,942,986,2880,0
HOEM,12/1/01,972.0423387,10.92293348,952,995,2976,0
HOEM,1/1/02,978.7576375,5.754306077,967,991,2946,30
HOEM,2/1/02,973.9401042,6.532656985,962,986,2688,0
HOEM,3/1/02,986.0026882,6.598293095,971,1000,2976,0
HOEM,4/1/02,977.05,7.639698151,960,992,2880,0
HOEM,5/1/02,987.0060484,15.25498559,963,1019,2976,0
HOEM,6/1/02,990.103125,11.90121391,963,1014,2880,0
HOEM,7/1/02,983.8884409,14.07164098,948,1011,2976,0
HOEM,8/1/02,974.1827957,7.634916676,956,995,2976,0
HOEM,9/1/02,982.1465278,10.10057388,949,1002,2880,0
HOEM,10/1/02,985.4764785,9.980457434,957,1005,2976,0
HOEM,11/1/02,979.2111111,9.338035336,961,1004,2880,0
HOEM,12/1/02,974.4210349,5.709477399,960,985,2976,0
HOEM,1/1/03,986.6229839,5.978870018,971,998,2976,0
HOEM,2/1/03,985.6175595,5.850794964,974,999,2688,0
HOEM,3/1/03,981.0900538,12.39457547,948,1001,2976,0
HOEM,4/1/03,973.7159722,12.21535464,943,989,2880,0
HOEM,5/1/03,973.6431452,13.81725897,941,999,2976,0
HOEM,6/1/03,988.6069444,7.167064619,969,1005,2880,0
HOEM,7/1/03,974.5752688,8.405943071,954,995,2976,0
HOEM,8/1/03,973.3125,8.959655137,943,994,2976,0
HOEM,9/1/03,975.0677083,7.475043505,950,990,2880,0
HOEM,10/1/03,969.6948925,8.85739424,951,986,2976,0
HOEM,11/1/03,977.6493056,5.873619756,966,989,2880,0
HOEM,12/1/03,988.7916667,6.745875387,975,1002,2976,0
HOEM,1/1/04,980.1694118,4.164029868,964,988,2975,1
HOEM,2/1/04,989.996408,7.080055646,977,1007,2784,0
HOEM,3/1/04,979.4754704,8.778204662,962,998,2976,0
HOEM,4/1/04,974.1489583,9.63197568,947,993,2880,0
HOEM,5/1/04,977.3108199,8.787796955,948,997,2976,0
HOEM,6/1/04,974.0930556,9.833046428,950,989,2880,0
HOEM,7/1/04,973.9233871,9.502101179,953,991,2976,0
HOEM,8/1/04,977.3313172,10.2499735,944,998,2976,0
HOEM,9/1/04,978.1565972,12.18951848,942,997,2880,0
HOEM,10/1/04,975.640457,6.891068119,962,992,2976,0
HOEM,11/1/04,972.7065972,11.45923313,952,994,2880,0
HOEM,12/1/04,986.1226478,7.182383526,971,1003,2976,0
HOEM,1/1/05,982.7352151,4.750279937,971,997,2976,0
HOEM,2/1/05,975.171503,8.00492817,958,992,2688,0
HOEM,3/1/05,979.5117608,7.33921408,962,994,2976,0
HOEM,4/1/05,975.5708333,9.860710188,955,996,2880,0
HOEM,5/1/05,976.5665323,10.36420515,948,995,2976,0
HOEM,6/1/05,984.1270833,11.69660293,954,1010,2880,0
HOEM,7/1/05,976.984879,8.307500298,954,996,2976,0
HOEM,8/1/05,973.672379,11.96203476,934,995,2976,0
HOEM,9/1/05,973.3944444,7.281181192,956,990,2880,0
HOEM,10/1/05,968.5433468,7.000850087,946,980,2976,0
HOEM,11/1/05,974.7958333,11.80720943,953,993,2880,0
HOEM,12/1/05,990.3427419,4.354092182,978,999,2976,0
HOEM,1/1/06,981.4119624,3.222657922,973,989,2976,0
HOEM,2/1/06,980.3043155,6.695600374,966,994,2688,0
HOEM,3/1/06,980.5870296,6.01626533,969,995,2976,0
HOEM,4/1/06,982.9409722,7.356216173,955,1002,2880,0
HOEM,5/1/06,971.6787634,9.059261436,933,990,2976,0
HOEM,6/1/06,976.9395833,11.4485042,957,1006,2880,0
HOEM,7/1/06,973.327957,11.04073305,933,997,2976,0
HOEM,8/1/06,985.0124328,10.03142189,931,1001,2976,0
HOEM,9/1/06,979.1454861,13.06831439,959,1005,2880,0
HOEM,10/1/06,970.7012769,8.834718281,920,990,2976,0
HOEM,11/1/06,974.1847222,6.084153618,958,983,2880,0
HOEM,12/1/06,978.0127688,3.729037309,962,985,2976,0
HOEM,1/1/07,980.984207,6.92743317,963,996,2976,0
HOEM,2/1/07,978.5401786,4.113918423,970,987,2688,0
HOEM,3/1/07,984.2056452,8.431915064,954,1007,2976,0
HOEM,4/1/07,979.8277778,11.78189216,925,995,2880,0
HOEM,5/1/07,980.593414,6.330983725,914,995,2976,0
HOEM,6/1/07,980.5364583,9.981402851,918,1001,2880,0
HOEM,7/1/07,991.8256048,14.15525545,917,1020,2976,0
HOEM,8/1/07,974.6801075,13.20811391,935,1009,2976,0
HOEM,9/1/07,973.36875,7.953503022,949,993,2880,0
HOEM,10/1/07,976.2896505,8.633768396,953,994,2976,0
HOEM,11/1/07,976.8010417,5.320796063,967,989,2880,0
HOEM,12/1/07,971.7230252,6.47720572,958,987,2975,0
HOEM,1/1/08,975.7331989,6.118388318,963,992,2976,0
HOEM,2/1/08,974.9489943,5.166462136,961,990,2784,0
HOEM,3/1/08,979.281586,5.912016844,964,997,2976,0
HOEM,4/1/08,980.2975694,10.52940412,949,998,2880,0
HOEM,5/1/08,979.2227823,8.677204665,958,999,2976,0
HOEM,6/1/08,971.6336806,8.904037296,953,995,2880,0
HOEM,7/1/08,975.4549731,12.30625948,938,1000,2976,0
HOEM,8/1/08,977.530914,9.663778963,948,1000,2976,0
HOEM,9/1/08,967.0885417,9.202224648,932,996,2880,0
HOEM,10/1/08,965.7459677,6.797872915,939,986,2976,0
HOEM,11/1/08,971.1611111,5.906568025,955,985,2880,0
HOEM,12/1/08,974.3373656,7.993974305,959,987,2976,0
HOEM,1/1/09,975.250336,5.010593808,960,987,2976,0
HOEM,2/1/09,980.5658482,6.411527372,965,993,2688,0
HOEM,3/1/09,975.8632392,7.035261449,948,995,2976,0
HOEM,4/1/09,976.2989583,9.579190368,929,992,2880,0
HOEM,5/1/09,984.1118952,8.789522772,923,1002,2976,0
HOEM,6/1/09,983.6770833,8.328020044,924,1001,2880,0
HOEM,7/1/09,983.2449597,15.55440897,931,1008,2976,0
HOEM,8/1/09,981.4674059,10.55034889,943,998,2976,0
HOEM,9/1/09,978.0375,12.6413639,940,998,2880,0
HOEM,10/1/09,970.8793683,6.828848672,953,985,2976,0
HOEM,11/1/09,977.6173611,9.654078247,958,994,2880,0
HOEM,12/1/09,976.2174059,4.04098076,964,986,2976,0
HOEM,1/1/10,989.5141129,4.8324327,973,998,2976,0
HOEM,2/1/10,984.9017857,8.732515018,963,999,2688,0
HOEM,3/1/10,978.9240591,8.536798002,954,994,2976,0
HOEM,4/1/10,974.3097222,7.655933181,927,989,2880,0
HOEM,5/1/10,976.3938172,10.07535384,914,996,2976,0
HOEM,6/1/10,971.753125,6.061725792,954,984,2880,0
HOEM,7/1/10,963.9717742,8.192795134,943,979,2976,0
HOEM,8/1/10,967.8686156,11.21367156,935,989,2976,0
HOEM,9/1/10,975.2965278,11.60264258,938,995,2880,0
HOEM,10/1/10,968.2775538,6.857069972,953,990,2976,0
HOEM,11/1/10,968.4729167,6.599596004,949,986,2880,0
HOEM,12/1/10,983.0868659,8.166887277,962,1007,2878,98
HOEM,1/1/11,985.8383737,4.483967995,977,995,2976,0
HOEM,2/1/11,979.937872,5.518403915,963,989,2688,0
HOEM,3/1/11,984.3844086,8.688952448,964,1002,2976,0
HOEM,4/1/11,983.2083333,9.124453097,950,996,2880,0
HOEM,5/1/11,969.2745296,16.4123617,908,988,2976,0
HOEM,6/1/11,980.4302083,9.977013732,956,1003,2880,0
HOEM,7/1/11,978.2614247,9.948786701,949,1000,2976,0
HOEM,8/1/11,981.6817876,14.99355215,920,1016,2976,0
HOEM,9/1/11,982.7763889,7.495558357,961,998,2880,0
HOEM,10/1/11,971.9075941,8.789481651,953,994,2976,0
HOEM,11/1/11,981.2083333,9.381479467,962,1004,2880,0
HOEM,12/1/11,971.0883737,6.016050178,960,988,2976,0
HOEM,1/1/12,972.5353982,4.600218296,962,980,2938,0
HOEM,2/1/12,973.5432526,7.830279632,960,987,1156,0
HOEM,9/1/12,968.4493671,9.868270887,954,981,158,5
HOEM,10/1/12,977.4981685,7.074553001,944,990,1365,4
HOEM,11/1/12,982.4838486,5.57926641,974,994,2879,0
HOEM,12/1/12,982.8258824,5.345551264,973,995,2975,1
HOEM,1/1/13,982.0813172,6.29798744,969,996,2976,0
HOEM,2/1/13,972.953125,6.350103626,958,984,2688,0
HOEM,3/1/13,970.3649194,7.261032118,947,985,2976,0
HOEM,4/1/13,976.1770833,9.724936837,935,994,2880,0
HOEM,5/1/13,977.0772849,10.35585694,935,998,2976,0
HOEM,6/1/13,988.2322917,9.034294524,952,1011,2880,0
HOEM,7/1/13,974.9364919,10.91718246,934,1000,2976,0
HOEM,8/1/13,982.7325269,19.43806446,893,1014,2976,0
HOEM,9/1/13,984.0236111,8.297281167,949,1006,2880,0
HOEM,10/1/13,975.4976447,9.581217312,934,993,2972,0
HOEM,11/1/13,973.6777778,6.312543344,952,987,2880,0
HOEM,12/1/13,978.9821909,6.365084805,966,991,2976,761
HOEM,1/1/14,983.7130376,4.813040205,973,992,2976,2976
HOEM,2/1/14,978.9985119,7.692257163,964,999,2688,2688
HOEM,3/1/14,976.2664651,7.047872155,952,990,2976,2976
HOEM,4/1/14,973.3010417,7.849221634,938,994,2880,2880
HOEM,5/1/14,976.2768817,7.284006873,924,993,2976,2976
HOEM,6/1/14,975.2204861,8.085273886,928,987,2880,2880
HOEM,7/1/14,977.6189516,10.05761372,940,999,2976,2976
HOEM,8/1/14,967.3084677,11.50308437,940,998,2976,2976
HOEM,9/1/14,976.9451389,7.599641039,954,997,2880,2880
HOEM,10/1/14,965.2674731,11.86462989,928,986,2976,2976
HOEM,11/1/14,977.2037037,4.51942589,966,986,648,648
HOEM,12/1/14,981,0,981,981,29,29
HOEM,1/1/15,978.5952782,4.594205626,971,989,2965,2965
HOEM,2/1/15,971.3779762,5.157799337,957,986,2688,2688
HOEM,3/1/15,975.4704301,8.311081958,950,991,2976,2976
HOEM,4/1/15,973.5549133,7.24679372,957,985,2076,2077
HOEM,5/1/15,977.5378007,10.11010784,932,1003,2910,2910
HOEM,6/1/15,977.2447917,10.50255798,952,999,2880,2880
HOEM,7/1/15,968.8252688,13.36491254,942,1001,2976,2976
HOEM,8/1/15,969.8138441,13.68543198,928,1002,2976,2976
HOEM,9/1/15,967.6212252,12.20313317,932,996,2318,2318
HOEM,10/1/15,969.874664,7.994751422,950,990,2976,2976
HOEM,11/1/15,969.0271399,8.773990196,945,984,2874,2874
HOEM,12/1/15,978.3464382,9.612383859,961,997,2976,2976
HOEM,1/1/16,972.9257392,5.54300493,958,987,2976,2976
HOEM,2/1/16,974.2234195,8.334479014,956,992,2784,2784
HOEM,3/1/16,972.0036962,7.018222604,956,988,2976,2976
HOEM,4/1/16,976.9270833,9.803747883,907,994,2880,2880
HOEM,5/1/16,975.5073925,11.63474711,927,997,2976,2976
HOEM,6/1/16,970.5579861,10.064818,949,995,2880,2880
HOEM,7/1/16,980.7009409,7.238362723,932,1001,2976,2976
HOEM,8/1/16,981.8773522,11.77332455,949,1004,2976,2976
HOEM,9/1/16,965.2635417,10.46137758,921,987,2880,2880
HOEM,10/1/16,971.8834066,7.897945558,922,987,2959,2959
HOEM,11/1/16,984.0059028,6.989470065,967,999,2880,2880
HOEM,12/1/16,981.25,4.247391686,968,991,2976,2976
HOEM,1/1/17,985.6112231,7.475296799,960,996,2976,2976
HOEM,2/1/17,980.9088542,5.636048485,970,996,2688,2688
HOEM,3/1/17,981.8669355,7.246982715,972,1001,2976,2976
HOEM,4/1/17,974.4111111,7.967963913,929,990,2880,2880
HOEM,5/1/17,966.3454301,13.70008769,907,989,2976,2976
HOEM,6/1/17,974.5399306,8.069888541,926,992,2880,2880
HOEM,7/1/17,972.3141801,9.517524599,945,1000,2976,2976
HOEM,8/1/17,967.936828,11.78411013,913,997,2976,2976
HOEM,9/1/17,969.9229167,8.525158149,912,989,2880,2880
HOEM,10/1/17,973.3702957,8.10755295,935,990,2976,2976
HOEM,11/1/17,967.925,7.185056454,956,986,2760,2867
HOEM,12/1/17,,,,,0,2975
HOEM,1/1/18,975.938841,6.632748537,964,986.98,1380,2974
HOEM,2/1/18,977.8041295,6.723835986,960.22,989.5,2688,2688
HOEM,3/1/18,979.5671836,8.864669601,957.15,997.17,2976,2976
HOEM,4/1/18,982.7859686,9.991933342,952.02,997.79,2880,2880
HOEM,5/1/18,979.798548,10.50069087,953.58,1002.2,2976,2976
HOEM,6/1/18,982.6698434,10.33759203,952.79,996.19,2880,2880
HOEM,7/1/18,978.8460345,10.53332169,951.64,1002.1,2976,2976
HOEM,8/1/18,985.7644422,8.648194949,963.07,1002.5,2976,2976
HOEM,9/1/18,969.7522184,12.80088788,935.1,991.04,2880,2880
HOEM,10/1/18,967.9766736,10.10257829,945.01,995.33,2976,2976
HOEM,11/1/18,971.1950561,6.129957562,958.05,983.26,2880,2880
HOEM,12/1/18,976.6664162,4.971028086,963.44,987.45,2974,1577
HOEM,1/1/19,980.1208672,6.199800658,966.58,992.86,2976,0
HOEM,2/1/19,982.6398991,9.490294906,963.27,999.39,2688,0
HOEM,3/1/19,980.3513301,6.889283975,965.31,994.07,2976,0
HOEM,4/1/19,977.6979862,6.111749939,960.2,988.36,2880,0
HOEM,5/1/19,981.1213004,11.62546225,955.52,1000.5,2976,0
HOEM,6/1/19,968.459584,11.86089569,938.89,999.64,2880,0
HOEM,7/1/19,983.1538202,11.06877197,952.74,1004.2,2976,0
HOEM,8/1/19,978.2204533,14.32485136,950.72,1013.6,2976,0
HOEM,9/1/19,968.6575461,8.13601792,940.12,980.58,2880,0
HOEM,10/1/19,977.0893452,10.0263608,940.84,994.4,2976,0
HOEM,11/1/19,986.4862568,3.976772943,973.07,994.72,2880,0
HOEM,12/1/19,988.4330369,6.564129631,974.7,1002.5,2960,708
HOEM,1/1/20,984.8453125,4.593823134,972.86,995.17,2976,2976
HOEM,2/1/20,977.334328,6.370664587,962.58,988.99,2784,2784
HOEM,3/1/20,973.834462,6.929460898,959.01,988.93,2976,2976
HOEM,4/1/20,977.2819545,10.88029838,945.68,999.07,2880,2880
HOEM,5/1/20,974.885407,8.250258989,953.25,988.77,2976,2976
HOEM,6/1/20,973.2771174,9.967711287,951.94,1003.6,2880,2880
HOEM,7/1/20,978.5015761,10.52710903,941.85,1005.4,2976,2976
HOEM,8/1/20,980.540067,12.35961529,944.72,1002.1,2976,2976
HOEM,9/1/20,979.080982,6.661463621,959.84,997.99,2880,2880
HOEM,10/1/20,968.0123525,5.066287041,953.41,979.6,2976,2976
HOEM,11/1/20,970.918653,11.29467101,947.29,988.03,2880,2880
HOEM,12/1/20,970.9060925,5.561974849,958.25,987.37,2976,2976
HOEM,1/1/21,975.3940731,8.492151492,961.3,997.74,2976,2976
HOEM,2/1/21,972.6982399,4.865261588,962.89,983.78,2688,2688
HOEM,3/1/21,980.9927816,7.311021094,970.88,998.43,2976,2976
HOEM,4/1/21,976.2752116,9.083662107,957.23,999.25,2880,2880
HOEM,5/1/21,978.605188,8.01664857,953.93,997.87,2976,2976
HOEM,6/1/21,977.0203745,8.932919872,956.01,993.62,2880,2880
HOEM,7/1/21,983.234284,7.603446946,962.89,1006.3,2976,2976
HOEM,8/1/21,983.5428601,10.55693564,959.74,1008.2,2976,2976
HOEM,9/1/21,970.1269202,7.139593113,959.07,989.01,2880,2880
HOEM,10/1/21,974.4497548,6.606625015,960.31,988.36,2976,2976
HOEM,11/1/21,969.8225801,5.666604956,951.83,980.88,2872,2872
HOEM,12/1/21,968.9489547,5.869145389,955.29,978.72,2974,2974
HOEM,1/1/22,977.1888479,7.198043016,963.37,993.21,2976,2976
HOEM,2/1/22,975.2200301,5.717454911,963.69,993,2688,2688
HOEM,3/1/22,976.6830344,5.951614243,960.48,991.47,2976,2976
HOEM,4/1/22,977.6732501,6.428461711,962.14,993.66,2880,2880
HOEM,5/1/22,974.21242,9.264758153,954.43,993.42,2976,2976
HOEM,6/1/22,986.4549726,7.498859707,965.46,1005,2880,2880
HOEM,7/1/22,971.280759,10.56936625,941.38,989.09,2976,2976
HOEM,8/1/22,974.1244025,9.529811594,942.95,992.72,2976,2976
HOEM,9/1/22,970.3283469,9.007529926,947.07,991.05,2880,2880
HOEM,10/1/22,975.0489348,10.42834533,958.71,997.96,2976,2976
HOEM,11/1/22,968.3802483,5.873364122,957.9,981.2,2059,2059